Home   Weather   Wertheim   Past weeks

Flag for Germany Past Weather in Wertheim, Baden-Württemberg, Germany — Yesterday and Last 2 Weeks

Now
54 °F

Passing clouds.


Feels Like: 52 °F
Forecast: 54 / 67 °F
Wind: 6 mph from Southwest

Location: Niederstetten

Current Time: Sep 29, 2016 at 7:10:02 AM

Latest Report: Sep 29, 2016 at 6:20 AM


Visibility: N/A

Pressure: 30.27 "Hg

Humidity: 82%

Dew Point: 48 °F

Location of WertheimLocation

Past Weather in Wertheim — Graph

°F

Wertheim Temperature Yesterday

Maximum temperature yesterday: 66 °F (at 3:20 PM)
Minimum temperature yesterday: 52 °F (at 5:20 AM)
Average temperature yesterday: 58 °F

High & Low Weather Summary for the Past Weeks

 TemperatureHumidityPressure
High84 °F (Sep 14, 3:20 PM)100% (Sep 18, 7:20 PM)30.39 "Hg (Sep 18, 7:20 PM)
Low43 °F (Sep 22, 5:20 AM)31% (Sep 14, 4:20 PM)29.86 "Hg (Sep 15, 5:20 AM)
Average59 °F76%30.11 "Hg
* Reported Sep 14 5:20 AM — Sep 29 5:20 AM, Wertheim, Weather by CustomWeather, © 2016

Note: Actual official high and low records may vary slightly from our data, if they occured in-between our weather recording intervals... More about our weather records

Advertising

Wertheim Weather History for the Previous 24 Hours

Scroll right to see more
 ConditionsComfort  
Time TempWeatherWind HumidityBarometerVisibility
5:20 AM
Thu, Sep 29
54 °FPassing clouds.6 mph82%30.27 "HgN/A
4:20 AM54 °FPassing clouds.5 mph82%30.27 "HgN/A
3:20 AM57 °FPassing clouds.6 mph72%30.30 "HgN/A
2:20 AM57 °FPassing clouds.8 mph77%30.30 "HgN/A
1:20 AM57 °FPassing clouds.8 mph77%30.33 "HgN/A
12:20 AM57 °FPassing clouds.8 mph77%30.33 "HgN/A
11:20 PM
Wed, Sep 28
55 °FPassing clouds.5 mph77%30.33 "HgN/A
10:20 PM59 °FPassing clouds.8 mph72%30.36 "HgN/A
9:20 PM59 °FPassing clouds.7 mph72%30.36 "HgN/A
8:20 PM61 °FPassing clouds.7 mph68%30.36 "HgN/A
7:20 PM63 °FPassing clouds.9 mph64%30.36 "HgN/A
6:20 PM64 °FPartly sunny.9 mph56%30.33 "HgN/A
5:20 PM66 °FPartly sunny.14 mph52%30.33 "HgN/A
4:20 PM66 °FPartly sunny.15 mph49%30.33 "HgN/A
3:20 PM66 °FPartly sunny.18 mph52%30.33 "HgN/A
2:20 PM64 °FPartly sunny.13 mph64%30.36 "HgN/A
1:20 PM64 °FPartly sunny.16 mph60%30.36 "HgN/A
12:20 PM64 °FPartly sunny.13 mph68%30.39 "HgN/A
11:20 AM61 °FPartly sunny.13 mph77%30.39 "HgN/A
10:20 AM59 °FPartly sunny.12 mph82%30.39 "HgN/A
9:20 AM55 °FPartly sunny.9 mph88%30.39 "Hg6 mi
8:20 AM55 °FFog.8 mph94%30.36 "Hg5 mi
8:01 AM54 °FFog.6 mph94%30.39 "Hg4 mi
7:20 AM52 °FFog.2 mph100%30.36 "Hg3 mi
Weather by CustomWeather, © 2016

See weather overviewHow to use our weather pages